Main page
Satellite images Climate Cyclones Lightning AirportsFAQ Languages Contact Newsletter About
Weather : Europe Africa North America South America Asia Australia-Oceania Others

surat-thani-th, Surat Thani, Surat Thani International Airport

48551

latitude: , longitude: Thailand, elevation: 09-07N m


METAR: VTSB 210100Z 36004KT 330V030 9999 FEW020 26/26 Q1012